T Black Aviation
T Black Aviation Training School
T Black Aviation Cessna Pilot Center

We Give All FAA, FCC, and NCATT Written Exams

Accelerated Aviation Academics®

Designated Mechanic Examiner (DME) on Premise

RSVP to Grand Opening of Cessna Pilot Center KSPG
Aircraft Electronics Technician (AET) Logo

National Center for Aerospace & Transportation Technologies (NCATT)

One week course September 1-5, 2014

T Black Aviation guarantees that if you fail any of the written tests, after completing our course, you may return to our school, up to ten years from the date of the initial course, for additional training (sit in on the current course) until you receive your designated rating.

CATS Testing Center at T Black Aviation

Current METAR for KPIE

KPIE 220653Z AUTO 10005KT 10SM CLR 24/22 A3001 RMK AO2 SLP163 T02440222 TSNO

Coming Soon to T Black Aviation